Location: Altenst�hlen
(53.5567°N, 8.9425°E)
Time: 20:24:14
(UTC+00:00)

STARLINK-53 - Pass Details

Date: 23 October 2019
Orbit: 550 x 552 km, 53.0° (Epoch: 20 November)

Event Time Altitude Azimuth Distance (km) Brightness Sun altitude
Rises 17:10:09 0° 271° (W) 2,723 9.4 -9.4°
Reaches altitude 10° 17:12:23 10° 270° (W) 1,829 7.9 -9.8°
Maximum altitude 17:16:33 84° 182° (S) 560 3.6 -10.4°
Enters shadow 17:19:55 15° 96° (E) 1,518 5.2 -10.9°
